| time (UTC) | temp C | wind direction | speed KPH | gust KPH | rain 1hr cm | rain 24hr cm | rain mn cm | humidity % | barometer mb |
| 20260508175518 | 13 | 290 | 11.3 | 25.7 | 320.42 | 0.00 | 0.00 | 37 | 1009.2 |
| 20260508175018 | 13 | 285 | 9.7 | 27.4 | 320.42 | 0.00 | 0.00 | 36 | 1009.2 |
| 20260508174523 | 14 | 277 | 9.7 | 27.4 | 320.42 | 0.00 | 0.00 | 35 | 1009.2 |
| 20260508174018 | 14 | 300 | 8.0 | 12.9 | 320.42 | 0.00 | 0.00 | 37 | 1009.3 |
| 20260508173518 | 14 | 283 | 8.0 | 22.5 | 320.42 | 0.00 | 0.00 | 37 | 1009.3 |
| 20260508173019 | 13 | 271 | 6.4 | 24.1 | 320.42 | 0.00 | 0.00 | 39 | 1009.3 |
| 20260508172518 | 13 | 271 | 11.3 | 14.5 | 320.42 | 0.00 | 0.00 | 39 | 1009.3 |
| 20260508171519 | 13 | 278 | 12.9 | 22.5 | 320.42 | 0.00 | 0.00 | 37 | 1009.3 |
| 20260508171018 | 14 | 266 | 11.3 | 20.9 | 320.42 | 0.00 | 0.00 | 39 | 1009.4 |
| 20260508170019 | 14 | 290 | 12.9 | 22.5 | 320.42 | 0.00 | 0.00 | 37 | 1009.3 |
| 20260508165518 | 14 | 302 | 6.4 | 37.0 | 320.42 | 0.00 | 0.00 | 41 | 1009.3 |
| 20260508165018 | 15 | 233 | 17.7 | 32.2 | 320.42 | 0.00 | 0.00 | 35 | 1009.3 |
| 20260508164519 | 14 | 290 | 11.3 | 25.7 | 320.42 | 0.00 | 0.00 | 38 | 1009.3 |
| 20260508163518 | 14 | 287 | 8.0 | 20.9 | 320.42 | 0.00 | 0.00 | 40 | 1009.3 |
| 20260508163019 | 14 | 271 | 6.4 | 24.1 | 320.42 | 0.00 | 0.00 | 39 | 1009.4 |
| 20260508162518 | 14 | 278 | 8.0 | 24.1 | 320.42 | 0.00 | 0.00 | 39 | 1009.3 |
| 20260508161519 | 13 | 285 | 12.9 | 25.7 | 320.42 | 0.00 | 0.00 | 40 | 1009.2 |
| 20260508161019 | 13 | 304 | 9.7 | 24.1 | 320.42 | 0.00 | 0.00 | 38 | 1009.2 |
| 20260508160518 | 13 | 288 | 12.9 | 17.7 | 320.42 | 0.00 | 0.00 | 39 | 1009.2 |
| 20260508160019 | 13 | 298 | 8.0 | 16.1 | 320.42 | 0.00 | 0.00 | 42 | 1009.3 |
| 20260508155518 | 13 | 288 | 4.8 | 16.1 | 320.42 | 0.00 | 0.00 | 41 | 1009.3 |
| 20260508155018 | 13 | 293 | 11.3 | 20.9 | 320.42 | 0.00 | 0.00 | 39 | 1009.5 |
| 20260508154519 | 13 | 287 | 4.8 | 24.1 | 320.42 | 0.00 | 0.00 | 42 | 1009.5 |
| 20260508154018 | 13 | 236 | 6.4 | 24.1 | 320.42 | 0.00 | 0.00 | 42 | 1009.6 |
| 20260508153518 | 13 | 260 | 11.3 | 22.5 | 320.42 | 0.00 | 0.00 | 42 | 1009.7 |
| 20260508153019 | 13 | 257 | 14.5 | 25.7 | 320.42 | 0.00 | 0.00 | 40 | 1009.7 |
| 20260508152518 | 13 | 252 | 12.9 | 19.3 | 320.42 | 0.00 | 0.00 | 42 | 1009.7 |
| 20260508152018 | 13 | 302 | 9.7 | 16.1 | 320.42 | 0.00 | 0.00 | 40 | 1009.8 |
| 20260508151519 | 13 | 304 | 11.3 | 20.9 | 320.42 | 0.00 | 0.00 | 40 | 1009.7 |
| 20260508151018 | 13 | 277 | 11.3 | 17.7 | 320.42 | 0.00 | 0.00 | 42 | 1009.7 |
| 20260508150518 | 13 | 293 | 9.7 | 27.4 | 320.42 | 0.00 | 0.00 | 41 | 1009.7 |
| 20260508150019 | 12 | 278 | 12.9 | 24.1 | 320.42 | 0.00 | 0.00 | 41 | 1009.6 |
| 20260508145518 | 12 | 273 | 3.2 | 24.1 | 320.42 | 0.00 | 0.00 | 42 | 1009.7 |
| 20260508145018 | 12 | 293 | 11.3 | 22.5 | 320.42 | 0.00 | 0.00 | 41 | 1009.8 |
| 20260508144519 | 12 | 278 | 8.0 | 27.4 | 320.42 | 0.00 | 0.00 | 45 | 1009.9 |
| 20260508144018 | 12 | 307 | 6.4 | 16.1 | 320.42 | 0.00 | 0.00 | 43 | 1009.9 |
| 20260508143518 | 12 | 270 | 11.3 | 17.7 | 320.42 | 0.00 | 0.00 | 42 | 1010.0 |
| 20260508143055 | 12 | 253 | 9.7 | 17.7 | 320.42 | 0.00 | 0.00 | 42 | 1010.0 |
| 20260508143019 | 12 | 253 | 9.7 | 17.7 | 320.42 | 0.00 | 0.00 | 42 | 1010.0 |
| 20260508142518 | 12 | 297 | 4.8 | 24.1 | 320.42 | 0.00 | 0.00 | 46 | 1010.2 |
| 20260508142018 | 11 | 273 | 14.5 | 16.1 | 320.42 | 0.00 | 0.00 | 44 | 1010.3 |
| 20260508141519 | 11 | 314 | 3.2 | 14.5 | 320.42 | 0.00 | 0.00 | 46 | 1010.1 |
| 20260508141018 | 11 | 295 | 6.4 | 24.1 | 320.42 | 0.00 | 0.00 | 41 | 1010.2 |
| 20260508140023 | 11 | 297 | 11.3 | 19.3 | 320.42 | 0.00 | 0.00 | 44 | 1010.2 |
| 20260508135518 | 11 | 295 | 11.3 | 27.4 | 320.42 | 0.00 | 0.00 | 43 | 1010.3 |
| 20260508135018 | 11 | 271 | 16.1 | 22.5 | 320.42 | 0.00 | 0.00 | 42 | 1010.4 |
| 20260508134519 | 11 | 273 | 4.8 | 17.7 | 320.42 | 0.00 | 0.00 | 46 | 1010.4 |
| 20260508134018 | 11 | 284 | 9.7 | 17.7 | 320.42 | 0.00 | 0.00 | 46 | 1010.4 |
| 20260508133518 | 11 | 270 | 11.3 | 22.5 | 320.42 | 0.00 | 0.00 | 45 | 1010.5 |
| 20260508133019 | 11 | 249 | 8.0 | 19.3 | 320.42 | 0.00 | 0.00 | 45 | 1010.4 |
| 20260508132518 | 11 | 285 | 12.9 | 20.9 | 320.42 | 0.00 | 0.00 | 44 | 1010.4 |
| 20260508132018 | 11 | 271 | 9.7 | 20.9 | 320.42 | 0.00 | 0.00 | 46 | 1010.4 |
| 20260508131523 | 11 | 300 | 6.4 | 22.5 | 320.42 | 0.00 | 0.00 | 46 | 1010.3 |
| 20260508130518 | 11 | 256 | 4.8 | 20.9 | 320.42 | 0.00 | 0.00 | 48 | 1010.3 |
| 20260508130019 | 11 | 280 | 11.3 | 25.7 | 320.42 | 0.00 | 0.00 | 45 | 1010.5 |
| 20260508125518 | 11 | 293 | 16.1 | 17.7 | 320.42 | 0.00 | 0.00 | 45 | 1010.4 |
| 20260508124520 | 11 | 290 | 11.3 | 24.1 | 320.42 | 0.00 | 0.00 | 46 | 1010.3 |
| 20260508124018 | 10 | 300 | 4.8 | 16.1 | 320.42 | 0.00 | 0.00 | 50 | 1010.3 |
| 20260508123518 | 10 | 281 | 12.9 | 17.7 | 320.42 | 0.00 | 0.00 | 51 | 1010.4 |
| 20260508123051 | 10 | 285 | 4.8 | 11.3 | 320.42 | 0.00 | 0.00 | 55 | 1010.3 |
| 20260508123018 | 10 | 285 | 4.8 | 11.3 | 320.42 | 0.00 | 0.00 | 55 | 1010.3 |
| 20260508122518 | 10 | 309 | 6.4 | 17.7 | 320.42 | 0.00 | 0.00 | 54 | 1010.3 |
| 20260508122018 | 9 | 284 | 4.8 | 17.7 | 320.42 | 0.00 | 0.00 | 54 | 1010.3 |
| 20260508121519 | 8 | 273 | 6.4 | 11.3 | 320.42 | 0.00 | 0.00 | 56 | 1010.4 |
| 20260508121018 | 8 | 300 | 6.4 | 11.3 | 320.42 | 0.00 | 0.00 | 62 | 1010.3 |
| 20260508120518 | 8 | 281 | 4.8 | 14.5 | 320.42 | 0.00 | 0.00 | 59 | 1010.4 |
| 20260508120019 | 7 | 308 | 8.0 | 9.7 | 320.42 | 0.00 | 0.00 | 62 | 1010.5 |
| 20260508115518 | 7 | 273 | 4.8 | 8.0 | 320.42 | 0.00 | 0.00 | 64 | 1010.5 |
| 20260508115018 | 7 | 267 | 4.8 | 9.7 | 320.42 | 0.00 | 0.00 | 66 | 1010.5 |
| 20260508114518 | 6 | 271 | 3.2 | 9.7 | 320.42 | 0.00 | 0.00 | 68 | 1010.5 |
| 20260508114018 | 6 | 287 | 6.4 | 6.4 | 320.42 | 0.00 | 0.00 | 69 | 1010.4 |
| 20260508113518 | 5 | 250 | 4.8 | 8.0 | 320.42 | 0.00 | 0.00 | 73 | 1010.3 |
| 20260508113020 | 5 | 293 | 3.2 | 4.8 | 320.42 | 0.00 | 0.00 | 77 | 1010.4 |
| 20260508112518 | 5 | 280 | 3.2 | 4.8 | 320.42 | 0.00 | 0.00 | 78 | 1010.3 |
| 20260508112018 | 4 | 284 | 1.6 | 6.4 | 320.42 | 0.00 | 0.00 | 82 | 1010.3 |
| 20260508111551 | 3 | 300 | 3.2 | 8.0 | 320.42 | 0.00 | 0.00 | 84 | 1010.3 |
| 20260508111518 | 3 | 300 | 3.2 | 8.0 | 320.42 | 0.00 | 0.00 | 84 | 1010.3 |
| 20260508111018 | 3 | 284 | 4.8 | 8.0 | 320.42 | 0.00 | 0.00 | 86 | 1010.3 |
| 20260508110018 | 3 | 302 | 0.0 | 6.4 | 320.42 | 0.00 | 0.00 | 89 | 1010.3 |
| 20260508105518 | 2 | 262 | 3.2 | 6.4 | 320.42 | 0.00 | 0.00 | 89 | 1010.2 |
| 20260508105018 | 2 | 298 | 3.2 | 6.4 | 320.42 | 0.00 | 0.00 | 89 | 1010.2 |
| 20260508104518 | 2 | 281 | 3.2 | 4.8 | 320.42 | 0.00 | 0.00 | 91 | 1010.1 |
| 20260508103018 | 2 | 294 | 3.2 | 6.4 | 320.42 | 0.00 | 0.00 | 91 | 1010.1 |
| 20260508102518 | 2 | 288 | 1.6 | 6.4 | 320.42 | 0.00 | 0.00 | 91 | 1010.0 |
| 20260508102018 | 2 | 283 | 3.2 | 6.4 | 320.42 | 0.00 | 0.00 | 91 | 1010.0 |
| 20260508101518 | 2 | 300 | 4.8 | 8.0 | 320.42 | 0.00 | 0.00 | 92 | 1009.8 |
| 20260508101018 | 2 | 280 | 4.8 | 8.0 | 320.42 | 0.00 | 0.00 | 92 | 1009.8 |
| 20260508100518 | 2 | 288 | 3.2 | 8.0 | 320.42 | 0.00 | 0.00 | 92 | 1009.7 |
| 20260508100018 | 2 | 287 | 4.8 | 8.0 | 320.42 | 0.00 | 0.00 | 92 | 1009.7 |
| 20260508095518 | 2 | 281 | 3.2 | 4.8 | 320.42 | 0.00 | 0.00 | 92 | 1009.5 |
| 20260508095017 | 2 | 285 | 3.2 | 3.2 | 320.42 | 0.00 | 0.00 | 91 | 1009.5 |
| 20260508094518 | 2 | 277 | 3.2 | 4.8 | 320.42 | 0.00 | 0.00 | 91 | 1009.6 |
| 20260508094018 | 2 | 291 | 3.2 | 4.8 | 320.42 | 0.00 | 0.00 | 91 | 1009.6 |
| 20260508093018 | 2 | 281 | 1.6 | 3.2 | 320.42 | 0.00 | 0.00 | 90 | 1009.5 |
| 20260508092518 | 2 | 276 | 1.6 | 3.2 | 320.42 | 0.00 | 0.00 | 89 | 1009.5 |
| 20260508092018 | 2 | 274 | 1.6 | 3.2 | 320.42 | 0.00 | 0.00 | 89 | 1009.5 |
| 20260508091518 | 2 | 274 | 1.6 | 3.2 | 320.42 | 0.00 | 0.00 | 89 | 1009.6 |
| 20260508091018 | 2 | 278 | 1.6 | 3.2 | 320.42 | 0.00 | 0.00 | 89 | 1009.5 |
| 20260508090517 | 2 | 285 | 3.2 | 3.2 | 320.42 | 0.00 | 0.00 | 89 | 1009.4 |
| 20260508090018 | 2 | 263 | 1.6 | 3.2 | 320.42 | 0.00 | 0.00 | 89 | 1009.4 |
| 20260508085517 | 2 | 278 | 1.6 | 3.2 | 320.42 | 0.00 | 0.00 | 88 | 1009.3 |
| 20260508085017 | 2 | 297 | 3.2 | 3.2 | 320.42 | 0.00 | 0.00 | 88 | 1009.3 |
| 20260508084518 | 2 | 284 | 3.2 | 4.8 | 320.42 | 0.00 | 0.00 | 88 | 1009.3 |
| 20260508084017 | 2 | 280 | 1.6 | 6.4 | 320.42 | 0.00 | 0.00 | 88 | 1009.4 |
| 20260508083518 | 2 | 259 | 3.2 | 6.4 | 320.42 | 0.00 | 0.00 | 87 | 1009.4 |
| 20260508083018 | 2 | 280 | 3.2 | 3.2 | 320.42 | 0.00 | 0.00 | 87 | 1009.5 |
| 20260508082517 | 2 | 271 | 0.0 | 3.2 | 320.42 | 0.00 | 0.00 | 86 | 1009.3 |
| 20260508082017 | 2 | 264 | 1.6 | 3.2 | 320.42 | 0.00 | 0.00 | 86 | 1009.3 |
| 20260508081518 | 2 | 280 | 1.6 | 4.8 | 320.42 | 0.00 | 0.00 | 87 | 1009.2 |
| 20260508081017 | 2 | 293 | 3.2 | 4.8 | 320.42 | 0.00 | 0.00 | 87 | 1009.1 |
| 20260508080517 | 2 | 277 | 3.2 | 6.4 | 320.42 | 0.00 | 0.00 | 85 | 1009.1 |
| 20260508080020 | 2 | 271 | 3.2 | 6.4 | 320.42 | 0.00 | 0.00 | 84 | 1009.0 |
| 20260508075017 | 3 | 285 | 3.2 | 8.0 | 320.42 | 0.00 | 0.00 | 84 | 1008.9 |
| 20260508074518 | 3 | 295 | 3.2 | 4.8 | 320.42 | 0.00 | 0.00 | 84 | 1008.8 |
| 20260508074019 | 3 | 266 | 3.2 | 3.2 | 320.42 | 0.00 | 0.00 | 84 | 1008.7 |
| 20260508073517 | 3 | 288 | 1.6 | 3.2 | 320.42 | 0.00 | 0.00 | 83 | 1008.5 |
| 20260508073018 | 3 | 274 | 0.0 | 3.2 | 320.42 | 0.00 | 0.00 | 83 | 1008.5 |
| 20260508072518 | 3 | 304 | 0.0 | 4.8 | 320.42 | 0.00 | 0.00 | 82 | 1008.5 |
| 20260508071518 | 4 | 288 | 1.6 | 4.8 | 320.42 | 0.00 | 0.00 | 80 | 1008.4 |
| 20260508071017 | 4 | 291 | 1.6 | 4.8 | 320.42 | 0.00 | 0.00 | 80 | 1008.3 |
| 20260508070519 | 4 | 307 | 3.2 | 6.4 | 320.42 | 0.00 | 0.00 | 79 | 1008.3 |
| 20260508070018 | 4 | 294 | 1.6 | 4.8 | 320.42 | 0.00 | 0.00 | 80 | 1008.2 |
| 20260508065517 | 3 | 277 | 0.0 | 6.4 | 320.42 | 0.00 | 0.00 | 79 | 1008.2 |
| 20260508065017 | 3 | 300 | 3.2 | 6.4 | 320.42 | 0.00 | 0.00 | 80 | 1008.3 |
| 20260508064518 | 3 | 283 | 3.2 | 4.8 | 320.42 | 0.00 | 0.00 | 82 | 1008.3 |
| 20260508064017 | 3 | 326 | 3.2 | 4.8 | 320.42 | 0.00 | 0.00 | 83 | 1008.3 |
| 20260508063518 | 3 | 328 | 1.6 | 6.4 | 320.42 | 0.00 | 0.00 | 82 | 1008.4 |
| 20260508063021 | 3 | 293 | 3.2 | 4.8 | 320.42 | 0.00 | 0.00 | 83 | 1008.5 |
| 20260508062517 | 4 | 281 | 3.2 | 3.2 | 320.42 | 0.00 | 0.00 | 82 | 1008.5 |
| 20260508062017 | 4 | 297 | 0.0 | 4.8 | 320.42 | 0.00 | 0.00 | 81 | 1008.5 |
| 20260508061518 | 4 | 304 | 3.2 | 6.4 | 320.42 | 0.00 | 0.00 | 81 | 1008.5 |
| 20260508061017 | 4 | 309 | 4.8 | 8.0 | 320.42 | 0.00 | 0.00 | 80 | 1008.5 |
| 20260508060517 | 5 | 301 | 1.6 | 4.8 | 320.42 | 0.00 | 0.00 | 80 | 1008.5 |
| 20260508060057 | 5 | 271 | 3.2 | 4.8 | 320.42 | 0.00 | 0.00 | 77 | 1008.4 |
| 20260508060019 | 5 | 271 | 3.2 | 4.8 | 320.42 | 0.00 | 0.00 | 77 | 1008.4 |
| 20260508055517 | 5 | 281 | 0.0 | 3.2 | 320.42 | 0.00 | 0.00 | 77 | 1008.4 |
| 20260508055017 | 5 | 283 | 3.2 | 6.4 | 320.42 | 0.00 | 0.00 | 77 | 1008.5 |
| 20260508054520 | 5 | 290 | 4.8 | 8.0 | 320.42 | 0.00 | 0.00 | 76 | 1008.7 |
| 20260508054018 | 5 | 283 | 3.2 | 4.8 | 320.42 | 0.00 | 0.00 | 75 | 1008.7 |
| 20260508053517 | 5 | 301 | 3.2 | 3.2 | 320.42 | 0.00 | 0.00 | 75 | 1008.8 |
| 20260508053018 | 5 | 308 | 3.2 | 6.4 | 320.42 | 0.00 | 0.00 | 74 | 1008.8 |
| 20260508052517 | 6 | 301 | 3.2 | 3.2 | 320.42 | 0.00 | 0.00 | 72 | 1008.8 |
| 20260508052017 | 6 | 326 | 1.6 | 4.8 | 320.42 | 0.00 | 0.00 | 71 | 1008.8 |
| 20260508051519 | 6 | 297 | 3.2 | 4.8 | 320.42 | 0.00 | 0.00 | 70 | 1008.9 |
| 20260508051017 | 6 | 298 | 0.0 | 4.8 | 320.42 | 0.00 | 0.00 | 70 | 1008.9 |
| 20260508050018 | 6 | 274 | 3.2 | 8.0 | 320.42 | 0.00 | 0.00 | 70 | 1009.1 |
| 20260508045517 | 6 | 307 | 3.2 | 6.4 | 320.42 | 0.00 | 0.00 | 71 | 1009.1 |
| 20260508045017 | 6 | 319 | 1.6 | 8.0 | 320.42 | 0.00 | 0.00 | 71 | 1009.1 |
| 20260508044519 | 6 | 285 | 4.8 | 8.0 | 320.42 | 0.00 | 0.00 | 72 | 1009.1 |
| 20260508044017 | 6 | 319 | 3.2 | 4.8 | 320.42 | 0.00 | 0.00 | 73 | 1009.1 |
| 20260508043517 | 6 | 273 | 3.2 | 4.8 | 320.42 | 0.00 | 0.00 | 72 | 1009.1 |
| 20260508043018 | 6 | 298 | 1.6 | 4.8 | 320.42 | 0.00 | 0.00 | 71 | 1009.2 |
| 20260508042519 | 6 | 0 | 0.0 | 0.0 | 320.42 | 0.00 | 0.00 | 71 | 1009.2 |
| 20260508042017 | 6 | 294 | 0.0 | 3.2 | 320.42 | 0.00 | 0.00 | 70 | 1009.2 |
| 20260508041519 | 6 | 293 | 1.6 | 4.8 | 320.42 | 0.00 | 0.00 | 68 | 1009.2 |
| 20260508041017 | 7 | 291 | 1.6 | 3.2 | 320.42 | 0.00 | 0.00 | 67 | 1009.2 |
| 20260508040517 | 7 | 266 | 1.6 | 3.2 | 320.42 | 0.00 | 0.00 | 66 | 1009.2 |
| 20260508040018 | 7 | 274 | 0.0 | 3.2 | 320.42 | 0.00 | 0.00 | 64 | 1009.2 |
| 20260508035517 | 7 | 0 | 0.0 | 0.0 | 320.42 | 0.00 | 0.03 | 64 | 1009.1 |
| 20260508035017 | 7 | 304 | 0.0 | 6.4 | 320.42 | 0.00 | 0.03 | 63 | 1009.1 |
| 20260508034518 | 7 | 281 | 0.0 | 1.6 | 320.42 | 0.00 | 0.03 | 63 | 1009.1 |
| 20260508034018 | 7 | 0 | 0.0 | 0.0 | 320.42 | 0.00 | 0.03 | 62 | 1009.1 |
| 20260508033518 | 7 | 287 | 0.0 | 4.8 | 320.42 | 0.00 | 0.03 | 63 | 1009.1 |
| 20260508033018 | 7 | 264 | 3.2 | 6.4 | 320.42 | 0.00 | 0.03 | 63 | 1009.1 |
| 20260508032517 | 7 | 290 | 3.2 | 8.0 | 320.42 | 0.00 | 0.03 | 63 | 1009.2 |
| 20260508032017 | 7 | 294 | 1.6 | 8.0 | 320.42 | 0.00 | 0.03 | 64 | 1009.1 |
| 20260508031519 | 7 | 300 | 3.2 | 4.8 | 320.42 | 0.00 | 0.03 | 63 | 1009.2 |
| 20260508031017 | 7 | 270 | 3.2 | 11.3 | 320.42 | 0.00 | 0.03 | 64 | 1009.1 |
| 20260508030518 | 7 | 301 | 4.8 | 9.7 | 320.42 | 0.00 | 0.03 | 63 | 1009.0 |
| 20260508030018 | 7 | 294 | 3.2 | 8.0 | 320.42 | 0.00 | 0.03 | 64 | 1008.9 |
| 20260508025517 | 7 | 266 | 3.2 | 4.8 | 320.42 | 0.00 | 0.03 | 64 | 1009.0 |
| 20260508025017 | 7 | 276 | 1.6 | 8.0 | 320.42 | 0.00 | 0.03 | 64 | 1009.0 |
| 20260508024517 | 7 | 274 | 1.6 | 9.7 | 320.42 | 0.00 | 0.03 | 63 | 1008.9 |
| 20260508024017 | 7 | 301 | 3.2 | 6.4 | 320.42 | 0.00 | 0.03 | 63 | 1009.0 |
| 20260508023517 | 7 | 287 | 4.8 | 6.4 | 320.42 | 0.00 | 0.03 | 62 | 1009.0 |
| 20260508023018 | 7 | 280 | 3.2 | 6.4 | 320.42 | 0.00 | 0.03 | 64 | 1009.0 |
| 20260508022517 | 8 | 267 | 3.2 | 6.4 | 320.42 | 0.00 | 0.03 | 64 | 1008.9 |
| 20260508022017 | 8 | 314 | 3.2 | 6.4 | 320.42 | 0.00 | 0.03 | 65 | 1009.0 |
| 20260508021519 | 8 | 266 | 0.0 | 4.8 | 320.42 | 0.00 | 0.03 | 64 | 1008.9 |
| 20260508021017 | 8 | 295 | 1.6 | 8.0 | 320.42 | 0.00 | 0.03 | 63 | 1008.9 |
| 20260508020517 | 8 | 298 | 1.6 | 6.4 | 320.42 | 0.00 | 0.03 | 61 | 1009.0 |
| 20260508020017 | 8 | 284 | 1.6 | 4.8 | 320.42 | 0.00 | 0.03 | 62 | 1008.9 |
| 20260508015017 | 8 | 298 | 3.2 | 6.4 | 320.42 | 0.00 | 0.03 | 61 | 1008.9 |
| 20260508014518 | 8 | 284 | 3.2 | 4.8 | 320.42 | 0.00 | 0.03 | 61 | 1008.8 |
| 20260508014017 | 8 | 323 | 0.0 | 3.2 | 320.42 | 0.00 | 0.03 | 61 | 1008.8 |
| 20260508013517 | 8 | 287 | 1.6 | 9.7 | 320.42 | 0.00 | 0.03 | 60 | 1008.7 |
| 20260508013017 | 9 | 295 | 0.0 | 4.8 | 320.42 | 0.00 | 0.03 | 60 | 1008.6 |
| 20260508012517 | 9 | 281 | 0.0 | 4.8 | 320.42 | 0.00 | 0.03 | 59 | 1008.5 |
| 20260508012017 | 9 | 0 | 0.0 | 0.0 | 320.42 | 0.00 | 0.03 | 60 | 1008.4 |
| 20260508011517 | 10 | 294 | 0.0 | 4.8 | 320.42 | 0.00 | 0.03 | 58 | 1008.3 |
| 20260508011017 | 10 | 290 | 1.6 | 3.2 | 320.42 | 0.00 | 0.03 | 57 | 1008.3 |
| 20260508010517 | 10 | 277 | 0.0 | 4.8 | 320.42 | 0.00 | 0.03 | 57 | 1008.2 |
| 20260508010017 | 10 | 273 | 0.0 | 4.8 | 320.42 | 0.00 | 0.03 | 55 | 1008.1 |
| 20260508005517 | 10 | 253 | 0.0 | 6.4 | 320.42 | 0.00 | 0.03 | 54 | 1008.1 |
| 20260508005017 | 10 | 285 | 0.0 | 6.4 | 320.42 | 0.00 | 0.03 | 52 | 1008.0 |
| 20260508004517 | 11 | 271 | 1.6 | 4.8 | 320.42 | 0.00 | 0.03 | 51 | 1007.9 |
| 20260508004017 | 11 | 288 | 0.0 | 6.4 | 320.42 | 0.00 | 0.03 | 51 | 1007.9 |
| 20260508003017 | 11 | 267 | 1.6 | 8.0 | 320.42 | 0.00 | 0.03 | 49 | 1007.8 |
| 20260508002517 | 11 | 297 | 4.8 | 6.4 | 320.42 | 0.00 | 0.03 | 47 | 1007.8 |
| 20260508002017 | 11 | 294 | 1.6 | 12.9 | 320.42 | 0.00 | 0.03 | 47 | 1007.9 |
| 20260508001517 | 12 | 290 | 4.8 | 9.7 | 320.42 | 0.00 | 0.03 | 46 | 1007.8 |
| 20260508001017 | 12 | 277 | 3.2 | 8.0 | 320.42 | 0.00 | 0.03 | 45 | 1007.8 |
| 20260508000517 | 12 | 284 | 3.2 | 11.3 | 320.42 | 0.00 | 0.03 | 45 | 1007.7 |
| 20260508000017 | 12 | 285 | 3.2 | 9.7 | 320.42 | 0.00 | 0.03 | 45 | 1007.7 |
| 20260507235517 | 12 | 284 | 6.4 | 9.7 | 320.42 | 0.00 | 0.03 | 44 | 1007.7 |
| 20260507235017 | 12 | 229 | 3.2 | 8.0 | 320.42 | 0.00 | 0.03 | 44 | 1007.6 |
| 20260507234518 | 12 | 293 | 4.8 | 8.0 | 320.42 | 0.00 | 0.03 | 41 | 1007.5 |
| 20260507234017 | 13 | 277 | 4.8 | 11.3 | 320.42 | 0.00 | 0.03 | 40 | 1007.5 |
| 20260507233017 | 13 | 264 | 4.8 | 9.7 | 320.42 | 0.00 | 0.03 | 39 | 1007.5 |
| 20260507232517 | 13 | 322 | 4.8 | 8.0 | 320.42 | 0.00 | 0.03 | 38 | 1007.5 |
| 20260507232017 | 13 | 300 | 3.2 | 14.5 | 320.42 | 0.00 | 0.03 | 38 | 1007.4 |
| 20260507231518 | 13 | 263 | 1.6 | 17.7 | 320.42 | 0.00 | 0.03 | 37 | 1007.3 |
| 20260507231016 | 13 | 295 | 12.9 | 17.7 | 320.42 | 0.00 | 0.03 | 35 | 1007.2 |
| 20260507230017 | 14 | 284 | 11.3 | 27.4 | 320.42 | 0.00 | 0.03 | 34 | 1007.2 |
| 20260507225516 | 14 | 288 | 6.4 | 24.1 | 320.42 | 0.00 | 0.03 | 36 | 1007.0 |
| 20260507225016 | 15 | 294 | 9.7 | 22.5 | 320.42 | 0.00 | 0.03 | 34 | 1007.0 |
| 20260507224517 | 15 | 287 | 12.9 | 17.7 | 320.42 | 0.00 | 0.03 | 33 | 1007.1 |
| 20260507224017 | 15 | 328 | 8.0 | 12.9 | 320.42 | 0.00 | 0.03 | 33 | 1007.0 |
| 20260507223517 | 15 | 287 | 6.4 | 17.7 | 320.42 | 0.00 | 0.03 | 34 | 1006.9 |
| 20260507223017 | 15 | 270 | 11.3 | 11.3 | 320.42 | 0.00 | 0.03 | 32 | 1006.9 |
| 20260507222516 | 15 | 283 | 8.0 | 16.1 | 320.42 | 0.00 | 0.03 | 33 | 1006.9 |
| 20260507222016 | 16 | 305 | 9.7 | 16.1 | 320.42 | 0.00 | 0.03 | 32 | 1006.8 |
| 20260507221517 | 16 | 250 | 9.7 | 16.1 | 320.42 | 0.00 | 0.03 | 33 | 1006.8 |
| 20260507221016 | 15 | 284 | 11.3 | 19.3 | 320.42 | 0.00 | 0.03 | 32 | 1006.7 |
| 20260507220017 | 16 | 314 | 4.8 | 20.9 | 320.42 | 0.00 | 0.03 | 34 | 1006.7 |
| 20260507215516 | 15 | 291 | 4.8 | 20.9 | 320.42 | 0.00 | 0.03 | 33 | 1006.6 |
| 20260507215017 | 15 | 290 | 9.7 | 22.5 | 320.42 | 0.00 | 0.03 | 32 | 1006.6 |
| 20260507214520 | 15 | 304 | 11.3 | 19.3 | 320.42 | 0.00 | 0.03 | 32 | 1006.5 |
| 20260507214016 | 15 | 257 | 8.0 | 19.3 | 320.42 | 0.00 | 0.03 | 32 | 1006.4 |
| 20260507213516 | 15 | 280 | 0.0 | 16.1 | 320.42 | 0.00 | 0.03 | 34 | 1006.4 |
| 20260507213017 | 16 | 284 | 4.8 | 14.5 | 320.42 | 0.00 | 0.03 | 34 | 1006.4 |
| 20260507212016 | 16 | 274 | 14.5 | 19.3 | 320.42 | 0.00 | 0.03 | 31 | 1006.5 |
| 20260507211517 | 16 | 309 | 8.0 | 19.3 | 320.42 | 0.00 | 0.03 | 31 | 1006.4 |
| 20260507210518 | 16 | 287 | 3.2 | 27.4 | 320.42 | 0.00 | 0.03 | 29 | 1006.3 |
| 20260507205516 | 16 | 257 | 4.8 | 17.7 | 320.42 | 0.00 | 0.03 | 31 | 1006.3 |
| 20260507205016 | 16 | 276 | 11.3 | 17.7 | 320.42 | 0.00 | 0.03 | 32 | 1006.4 |
| 20260507204517 | 16 | 288 | 11.3 | 27.4 | 320.42 | 0.00 | 0.03 | 30 | 1006.4 |
| 20260507204016 | 16 | 321 | 14.5 | 19.3 | 320.42 | 0.00 | 0.03 | 33 | 1006.3 |
| 20260507203518 | 16 | 294 | 6.4 | 16.1 | 320.42 | 0.00 | 0.03 | 33 | 1006.4 |
| 20260507203017 | 16 | 270 | 4.8 | 19.3 | 320.42 | 0.00 | 0.03 | 33 | 1006.4 |
| 20260507202517 | 16 | 293 | 9.7 | 14.5 | 320.42 | 0.00 | 0.03 | 31 | 1006.3 |
| 20260507202016 | 16 | 276 | 4.8 | 20.9 | 320.42 | 0.00 | 0.03 | 31 | 1006.3 |
| 20260507201517 | 16 | 195 | 12.9 | 20.9 | 320.42 | 0.00 | 0.03 | 30 | 1006.3 |
| 20260507201016 | 16 | 312 | 11.3 | 25.7 | 320.42 | 0.00 | 0.03 | 31 | 1006.3 |
| 20260507200516 | 16 | 284 | 14.5 | 29.0 | 320.42 | 0.00 | 0.03 | 32 | 1006.3 |
| 20260507200017 | 16 | 284 | 12.9 | 24.1 | 320.42 | 0.00 | 0.03 | 32 | 1006.2 |
| 20260507195516 | 16 | 266 | 6.4 | 32.2 | 320.42 | 0.00 | 0.03 | 33 | 1006.4 |
| 20260507195016 | 16 | 280 | 16.1 | 25.7 | 320.42 | 0.00 | 0.03 | 32 | 1006.4 |
| 20260507194517 | 16 | 288 | 12.9 | 27.4 | 320.42 | 0.00 | 0.03 | 31 | 1006.5 |
| 20260507194016 | 16 | 270 | 17.7 | 25.7 | 320.42 | 0.00 | 0.03 | 30 | 1006.4 |
| 20260507193516 | 17 | 304 | 11.3 | 17.7 | 320.42 | 0.00 | 0.03 | 32 | 1006.5 |
| 20260507193017 | 17 | 260 | 11.3 | 14.5 | 320.42 | 0.00 | 0.03 | 34 | 1006.4 |
| 20260507192516 | 16 | 277 | 6.4 | 19.3 | 320.42 | 0.00 | 0.03 | 35 | 1006.5 |
| 20260507192016 | 16 | 263 | 4.8 | 32.2 | 320.42 | 0.00 | 0.03 | 35 | 1006.5 |
| 20260507191517 | 16 | 267 | 14.5 | 20.9 | 320.42 | 0.00 | 0.03 | 33 | 1006.6 |
| 20260507191016 | 16 | 255 | 6.4 | 27.4 | 320.42 | 0.00 | 0.03 | 33 | 1006.6 |
| 20260507190516 | 16 | 252 | 11.3 | 27.4 | 320.42 | 0.00 | 0.03 | 34 | 1006.8 |
| 20260507190017 | 16 | 278 | 16.1 | 29.0 | 320.42 | 0.00 | 0.03 | 31 | 1006.7 |
| 20260507185516 | 16 | 271 | 9.7 | 22.5 | 320.42 | 0.00 | 0.03 | 33 | 1006.7 |
| 20260507185016 | 16 | 273 | 14.5 | 29.0 | 320.42 | 0.00 | 0.03 | 32 | 1006.8 |
| 20260507184517 | 16 | 266 | 6.4 | 19.3 | 320.42 | 0.00 | 0.03 | 35 | 1006.8 |
| 20260507184016 | 16 | 245 | 9.7 | 33.8 | 320.42 | 0.00 | 0.03 | 33 | 1006.9 |
| 20260507183516 | 16 | 269 | 12.9 | 27.4 | 320.42 | 0.00 | 0.03 | 31 | 1007.0 |
| 20260507183017 | 16 | 298 | 11.3 | 22.5 | 320.42 | 0.00 | 0.03 | 31 | 1007.1 |
| 20260507182516 | 16 | 277 | 3.2 | 22.5 | 320.42 | 0.00 | 0.03 | 36 | 1007.1 |
| 20260507182018 | 16 | 290 | 11.3 | 20.9 | 320.42 | 0.00 | 0.03 | 34 | 1007.2 |
| 20260507181517 | 16 | 271 | 9.7 | 27.4 | 320.42 | 0.00 | 0.03 | 30 | 1007.2 |
| 20260507181016 | 16 | 262 | 16.1 | 27.4 | 320.42 | 0.00 | 0.03 | 29 | 1007.3 |
| 20260507180519 | 16 | 288 | 11.3 | 19.3 | 320.42 | 0.00 | 0.03 | 31 | 1007.2 |
| 20260507180017 | 16 | 246 | 6.4 | 20.9 | 320.42 | 0.00 | 0.03 | 33 | 1007.3 |